RH
10 17 22 13 12 23 30 26 32 60 63 70 87 92 94 97 79 64 51 52 49 30 25 23 18 23 63 90 85 72 42 15 15 15 13 12 13 14 19 28 27 29 20 19 22 26 31
8 13 23 20 11 20 29 28 51 68 67 81 90 92 94 97 90 55 62 60 59 59 45 33 18 26 65 94 80 60 29 16 15 17 13 14 14 17 17 18 26 26 22 25 29 31 33
13 9 16 25 14 13 28 30 50 63 75 77 89 86 96 98 92 95 97 79 60 63 29 23 44 75 57 89 66 41 27 19 15 16 13 13 14 15 15 21 23 22 24 26 29 29 27
41 12 11 21 24 12 20 31 39 52 73 81 78 87 79 92 98 99 97 90 93 96 89 87 61 92 90 81 48 38 25 18 14 14 14 13 14 15 15 18 22 19 22 21 21 21 20
28 42 12 13 26 22 12 23 33 48 66 76 78 88 93 83 100 100 98 87 78 99 98 99 82 91 83 67 42 27 21 17 15 14 16 14 15 14 14 13 18 14 14 14 14 14 13
10 28 44 12 15 26 20 13 22 35 52 59 68 76 93 99 96 76 92 100 92 95 90 97 91 84 70 50 38 30 24 20 17 16 17 15 15 14 13 13 13 13 19 14 15 17 18
9 13 24 45 12 14 26 19 13 20 36 43 41 59 74 76 85 71 80 92 98 97 94 90 95 81 63 58 52 40 32 24 20 20 23 26 20 19 18 18 19 20 19 23 23 22 20
9 14 16 19 46 15 14 25 18 14 21 33 36 45 56 64 77 80 81 78 74 85 95 94 92 85 78 68 65 59 52 43 33 27 27 31 31 31 32 30 29 26 24 22 20 18 18
7 14 14 16 19 40 21 13 24 17 14 22 30 33 37 45 54 77 75 73 69 79 92 88 82 79 74 71 66 60 54 51 44 41 42 39 39 38 35 32 28 24 21 21 21 20 20
4 12 11 11 14 22 31 33 12 24 16 14 22 26 32 36 44 45 66 70 72 74 82 86 76 77 78 68 61 60 56 48 44 43 41 36 34 33 29 25 22 22 22 23 26 31 31
4 5 9 11 15 20 28 31 43 12 24 16 13 24 26 31 37 41 45 49 50 54 79 77 76 75 74 67 61 62 54 50 38 36 30 32 30 29 27 26 27 27 30 32 32 31 33
5 5 8 12 24 28 32 38 38 42 13 24 16 12 22 26 30 35 36 41 43 48 67 64 70 69 64 61 56 53 51 44 42 42 41 36 33 33 31 34 35 35 34 30 28 33 53
6 6 10 19 34 31 35 43 48 45 44 11 24 17 12 20 24 26 29 33 39 55 62 63 65 64 62 61 58 56 52 49 46 46 46 46 42 40 40 40 36 32 28 22 43 64 59
8 8 11 33 32 30 33 41 44 48 46 44 12 22 17 9 21 22 24 28 38 50 53 56 56 54 51 52 56 55 49 43 39 38 40 37 39 36 35 33 33 30 28 26 36 60 73
9 7 8 22 23 24 31 42 44 44 47 45 32 18 22 16 10 19 24 27 43 47 50 52 53 49 49 45 45 41 42 39 41 39 33 33 34 32 32 29 28 37 40 44 53 88 95
9 7 7 8 13 21 26 41 44 41 38 48 45 9 20 22 11 11 15 29 40 44 45 41 34 37 32 34 36 27 26 30 28 32 34 33 33 36 32 32 34 41 58 73 69 84 85
9 9 9 10 12 16 21 35 43 40 31 46 46 16 14 21 22 13 10 23 32 35 31 26 23 26 26 25 25 22 30 31 26 27 31 43 38 51 47 37 31 45 61 68 74 75 84
11 12 14 16 19 18 20 25 36 34 29 45 49 23 8 16 21 23 19 15 15 17 18 18 19 21 22 29 30 40 43 50 47 50 54 56 60 56 50 41 54 64 75 69 71 78 99
15 19 26 31 38 34 28 26 38 35 32 41 50 44 37 13 17 24 27 31 32 33 36 36 36 37 42 48 52 54 55 54 52 49 48 49 55 57 55 64 66 73 64 67 76 80 84
17 24 35 41 49 50 41 35 43 37 38 32 47 57 56 14 15 14 25 30 32 35 36 38 40 42 44 46 49 49 45 43 40 35 33 35 37 34 30 29 36 43 40 56 79 92 82
18 33 40 44 50 52 50 45 46 42 44 40 36 57 63 61 52 22 14 16 27 32 33 34 34 35 37 36 28 26 28 27 27 26 27 35 35 28 24 26 34 30 28 32 41 39 75
25 40 45 45 48 50 50 51 50 44 44 46 41 40 58 65 64 50 26 17 16 21 24 22 23 24 25 23 28 26 24 25 25 25 30 33 38 34 24 21 23 23 21 23 26 29 30
25 46 51 50 47 46 51 53 55 52 42 39 40 37 36 60 73 70 62 44 27 20 21 22 23 24 24 24 26 25 23 26 32 37 43 51 51 57 57 40 34 20 12 14 15 14 14
32 54 59 56 52 45 40 40 40 34 35 35 34 32 31 38 62 78 78 73 60 44 49 38 33 26 26 27 32 32 28 25 26 27 33 51 68 77 76 55 53 13 14 12 12 11 13
55 61 63 59 56 53 49 46 38 24 21 23 24 25 25 27 39 65 74 81 82 81 94 81 52 44 45 46 47 42 39 34 26 23 30 39 68 86 63 77 25 11 12 11 10 10 9
77 75 66 63 60 55 53 47 34 22 18 15 15 19 31 39 46 42 64 81 90 90 90 89 88 86 80 49 45 54 44 28 26 25 25 35 49 97 95 84 69 12 14 17 20 12 12
64 75 74 64 64 59 56 54 40 27 26 20 14 17 28 31 48 52 44 56 81 94 97 99 98 99 97 81 64 58 50 42 38 29 28 43 96 96 100 96 53 17 22 21 29 15 15
87 85 80 72 71 64 51 42 33 28 22 12 11 14 20 30 37 50 55 74 85 90 100 100 100 98 100 93 86 78 71 64 50 44 35 33 40 67 100 96 74 19 20 21 22 22 27
100 100 88 83 80 62 33 23 26 24 11 5 5 12 21 35 28 32 38 61 73 72 99 100 99 100 98 98 90 80 67 58 55 52 57 54 53 46 49 38 28 24 28 38 56 85 71
Wind_Speed
37 40 41 40 36 37 41 38 36 41 45 39 33 32 33 37 20 24 20 17 13 12 13 14 15 21 20 13 19 23 22 22 23 22 24 24 25 27 27 26 25 16 14 14 15 17 17
37 38 41 41 38 36 38 38 38 45 45 39 37 33 33 31 29 27 30 25 19 13 10 8 11 16 21 10 25 19 21 21 22 21 23 24 24 20 22 23 22 16 14 13 15 16 15
40 38 39 41 40 36 36 37 36 43 48 41 43 40 33 43 49 42 34 30 22 18 18 12 12 13 23 21 19 20 20 19 20 21 21 22 21 18 20 20 20 16 16 15 15 15 14
41 39 38 40 40 39 34 35 34 37 45 49 44 38 34 30 30 32 37 27 21 17 17 19 21 10 28 28 22 20 19 19 20 20 19 21 22 13 19 16 18 13 14 13 14 14 14
43 40 39 38 39 39 38 33 32 32 38 42 46 47 33 29 31 31 28 30 23 18 18 18 18 24 32 27 24 21 19 20 20 19 17 19 19 13 16 12 16 12 10 14 10 13 15
41 42 39 37 37 39 38 36 31 29 29 34 38 39 43 30 24 28 30 34 33 32 25 28 24 24 31 26 23 22 19 18 18 17 16 16 16 16 16 15 12 13 8 11 11 10 13
37 40 42 40 36 36 38 38 34 30 25 25 33 33 39 38 27 23 20 24 30 28 25 25 29 35 29 26 24 22 19 18 17 16 15 14 14 16 15 12 8 8 9 7 7 10 14
34 37 40 41 39 36 35 37 36 32 27 22 24 25 27 34 30 23 17 11 24 34 35 31 29 27 24 22 22 20 19 18 16 16 14 15 13 13 12 10 7 6 5 5 8 11 15
30 34 36 39 40 38 35 34 35 33 30 24 20 19 20 18 21 29 24 27 31 34 32 25 23 22 21 17 19 19 16 18 16 14 12 11 11 10 8 6 5 4 4 5 8 11 17
26 29 33 35 37 38 38 34 33 32 30 27 20 17 16 14 12 13 16 22 25 19 20 17 16 16 18 18 16 14 14 15 16 12 11 7 8 7 6 5 5 4 5 6 9 10 8
23 25 29 32 34 36 36 35 33 30 29 27 24 19 15 13 11 7 6 5 4 2 5 7 15 15 14 5 16 13 11 11 12 15 9 8 9 8 6 5 4 4 6 8 12 14 17
21 24 27 29 31 34 35 34 32 31 27 25 24 20 17 13 10 8 7 6 6 3 5 5 8 11 14 12 12 13 11 10 11 10 6 8 11 9 8 7 6 6 7 10 13 12 4
19 21 24 27 29 31 33 32 31 30 28 24 22 21 18 14 11 9 6 5 4 8 10 9 13 11 10 11 10 12 12 11 5 6 5 6 8 7 7 6 6 6 4 4 4 2 4
17 20 23 24 26 28 30 30 31 30 28 23 20 20 19 14 14 9 5 2 6 7 7 13 13 12 10 9 9 9 8 5 6 5 9 6 5 8 8 9 6 6 6 3 5 2 5
17 19 21 23 24 26 28 29 29 30 28 22 18 16 18 17 9 11 9 5 7 12 14 13 10 6 7 3 5 5 5 3 5 4 3 5 4 9 6 9 8 5 6 5 3 4 4
18 19 21 23 24 24 25 27 27 28 27 22 16 11 13 16 15 10 7 14 11 15 14 10 3 4 1 3 4 3 3 4 4 6 8 4 3 9 12 12 13 11 6 4 5 1 4
18 21 21 22 24 24 24 25 25 26 27 22 13 7 10 10 13 11 11 17 15 14 10 3 2 3 3 2 1 1 1 1 4 5 5 4 6 4 12 10 12 14 13 9 6 5 2
19 22 24 25 24 25 22 21 23 25 28 20 13 7 8 7 8 9 12 10 9 6 2 3 4 4 4 1 2 2 2 1 3 4 5 5 5 6 7 10 11 14 15 15 7 5 6
22 24 28 30 28 26 23 20 20 21 26 23 14 9 8 6 4 7 7 7 8 6 5 4 1 2 3 4 2 2 3 4 4 4 3 3 4 4 4 9 15 18 21 20 20 17 15
22 27 31 32 30 26 24 20 20 17 21 24 17 11 9 6 5 3 2 2 2 2 2 2 2 2 2 4 4 2 4 4 5 6 7 8 10 12 11 11 14 16 17 15 23 16 18
24 25 27 28 25 27 23 19 18 18 19 20 20 13 11 6 4 2 2 3 4 3 4 3 3 5 4 5 5 7 7 8 9 10 11 11 14 16 19 21 24 29 32 32 36 37 32
25 26 27 28 26 23 21 19 17 18 20 18 18 17 13 8 6 4 3 3 5 8 8 6 7 9 9 10 9 10 10 10 12 13 13 16 16 19 31 27 24 28 29 31 40 46 51
26 27 28 26 23 23 22 22 23 23 20 20 18 16 14 10 6 5 5 6 5 6 8 11 12 12 13 12 15 17 19 18 19 20 20 21 20 17 13 15 25 29 6 8 18 32 37
29 29 28 27 24 24 25 25 28 28 25 22 20 17 16 11 9 6 7 8 9 10 12 11 12 14 15 15 17 19 22 23 25 26 27 28 23 16 18 22 4 3 13 22 23 20 22
30 30 30 28 28 29 29 30 30 30 27 25 21 18 16 15 12 7 7 9 12 13 14 13 15 17 18 19 21 16 16 20 21 24 30 31 26 12 7 7 25 22 6 7 9 9 7
31 30 31 30 30 32 31 30 30 30 28 28 26 24 20 14 9 16 9 8 11 14 15 16 16 15 16 17 15 9 6 11 6 6 9 18 24 20 10 5 6 4 8 13 20 10 8
36 34 34 35 33 34 36 35 32 32 30 30 28 25 24 23 14 13 17 17 17 15 15 16 17 18 16 17 18 16 15 17 9 9 9 14 16 30 25 12 18 17 18 14 7 4 7
39 36 36 38 37 35 34 35 34 32 30 30 29 28 29 28 26 15 7 5 10 17 18 16 16 15 14 16 13 14 13 14 13 17 13 11 8 14 22 11 16 1 2 4 9 18 32
47 47 40 37 37 36 33 31 33 33 31 29 29 29 25 27 29 27 26 21 18 18 22 23 23 24 23 15 14 11 14 13 16 12 19 21 24 20 20 20 22 24 33 42 38 39 42
Wind_Direction
26 25 24 25 25 22 23 22 23 20 18 25 27 32 28 53 82 98 111 123 133 139 156 187 190 189 194 201 153 156 161 167 167 169 165 164 172 175 177 181 183 182 180 181 185 194 203
28 28 26 26 27 28 28 27 32 30 29 34 41 42 41 30 96 114 102 101 113 123 144 156 182 193 182 165 141 147 154 162 165 164 163 163 171 173 180 180 184 183 180 177 184 196 204
30 29 28 29 27 31 32 31 33 36 39 35 40 49 45 62 75 83 92 97 108 113 116 130 168 156 180 139 129 140 146 153 156 161 161 161 166 175 175 176 179 179 184 182 190 201 211
30 31 30 30 30 29 35 35 31 33 39 40 35 36 60 76 78 81 79 84 94 94 115 130 156 141 147 119 121 131 138 145 151 155 158 160 167 169 176 172 176 175 186 191 203 212 223
31 31 33 31 32 31 32 37 34 36 40 46 44 38 46 79 81 81 85 96 69 86 101 141 150 146 116 121 121 129 135 145 151 151 150 157 165 165 169 170 176 176 192 203 214 226 237
30 31 33 34 32 33 33 35 37 32 43 43 40 34 43 59 94 96 113 107 94 97 112 128 146 124 118 120 123 124 131 142 147 147 148 154 160 165 165 169 181 187 177 202 218 233 247
30 29 31 33 33 32 33 35 38 36 32 42 43 39 40 49 77 90 106 102 97 79 94 106 119 122 118 125 128 127 129 133 141 143 143 146 154 156 158 164 170 178 199 214 233 250 261
28 28 28 29 32 31 30 33 36 38 34 37 47 49 45 38 66 96 80 113 110 103 99 102 109 114 122 129 129 134 140 140 142 145 148 145 155 150 156 163 164 172 198 226 253 267 276
27 27 25 25 24 31 29 29 33 35 38 36 43 48 49 52 41 71 80 90 106 110 103 103 108 114 119 123 135 137 141 146 144 150 152 162 151 153 157 167 183 200 231 249 267 283 287
24 25 24 24 21 20 27 27 26 31 34 36 35 38 44 53 68 70 83 84 95 92 86 85 98 105 115 128 126 132 145 153 149 153 152 152 152 162 175 186 201 218 243 271 284 296 283
17 22 22 21 21 16 19 24 25 24 29 33 34 35 34 38 51 60 66 111 88 71 70 78 95 114 121 115 135 132 144 155 158 156 168 162 163 172 181 191 207 238 260 276 284 289 295
14 17 19 20 19 16 14 17 23 22 22 27 33 32 32 32 23 34 30 30 26 79 56 103 112 115 120 128 132 127 132 141 146 145 142 162 169 174 190 199 216 241 270 289 288 288 282
10 13 16 17 19 17 14 15 17 20 19 17 24 33 31 30 31 21 7 8 34 58 123 126 125 123 123 127 130 132 138 145 147 157 158 160 180 194 204 221 241 252 275 313 339 8 236
1 7 10 16 16 14 12 13 14 18 16 17 15 22 33 27 26 26 5 38 67 117 126 138 128 126 123 122 132 142 148 145 159 164 164 177 190 204 212 217 226 230 225 196 220 257 290
353 358 1 4 10 12 8 8 11 13 14 12 13 18 26 31 38 40 47 70 92 113 131 131 130 126 132 106 146 154 172 185 183 198 187 200 228 213 221 222 220 227 218 223 261 296 299
347 352 356 357 0 5 6 4 6 6 7 7 10 15 28 30 42 48 89 98 113 123 129 127 99 140 208 168 150 153 165 198 212 216 213 225 236 217 220 224 225 223 218 204 219 221 266
340 346 350 353 353 355 2 2 5 4 1 2 10 19 27 36 43 60 93 108 122 134 144 145 117 140 136 159 237 203 303 297 230 232 234 250 244 253 230 238 242 228 223 221 226 227 210
332 337 340 342 346 343 347 355 1 5 7 3 16 39 31 32 47 61 86 101 121 138 150 149 133 134 146 159 172 198 174 267 218 234 253 254 278 261 264 251 243 235 238 236 230 219 216
324 331 332 334 335 332 331 345 351 360 16 13 24 35 26 27 53 68 86 101 118 121 117 125 105 147 168 171 177 215 213 222 219 238 272 285 273 292 270 253 252 248 250 247 241 252 237
315 322 327 331 330 330 326 336 341 351 5 14 19 22 24 62 40 32 65 107 130 142 141 138 151 187 237 243 251 247 238 251 251 260 271 285 258 247 255 281 284 273 276 265 245 241 245
308 314 320 328 328 328 326 332 340 345 354 10 14 15 20 357 353 334 289 270 260 257 251 257 248 234 238 251 259 263 263 266 274 279 281 280 276 277 279 284 284 281 273 265 255 253 245
301 308 315 322 322 322 325 328 334 336 342 351 2 6 11 20 1 332 300 273 258 255 260 263 263 264 264 261 262 269 264 265 272 271 267 271 276 285 288 294 284 280 274 268 261 258 259
295 302 308 312 317 317 316 318 322 324 332 337 346 352 357 355 354 324 305 284 269 264 269 268 265 266 274 279 270 269 273 272 271 272 272 271 275 290 288 294 299 294 280 284 283 268 268
291 297 300 303 305 308 308 311 315 319 324 328 334 336 337 341 338 319 284 267 264 267 271 275 276 275 275 275 275 275 273 273 271 269 266 263 270 278 285 306 276 250 302 296 286 280 284
286 289 293 297 301 299 300 301 309 312 319 323 325 326 326 323 320 317 311 287 270 266 273 271 275 277 275 277 287 292 287 283 274 262 256 255 253 252 258 266 285 287 296 0 359 351 304
283 284 290 293 294 297 296 298 304 307 313 315 318 318 317 313 307 304 307 302 290 282 278 277 273 269 272 278 278 263 250 284 271 269 248 239 238 227 240 250 251 262 280 307 316 304 179
277 281 282 285 287 290 291 294 297 301 307 310 310 310 309 309 313 293 290 288 290 290 295 286 277 279 279 275 265 260 260 251 251 245 249 230 228 224 231 254 269 268 281 293 293 304 233
285 286 282 281 280 282 284 286 289 296 303 305 307 307 306 305 309 316 296 270 271 276 285 284 290 289 275 262 256 257 245 250 249 247 257 257 241 227 216 238 269 284 11 297 306 290 292
277 285 280 282 277 275 275 281 288 293 297 298 299 300 300 293 296 295 298 286 286 276 274 270 269 275 275 264 249 238 242 244 245 251 258 255 269 263 249 265 280 286 289 295 297 292 286